| time (UTC) | temp F | wind direction | speed knots | gust knots | rain 1hr in | rain 24hr in | rain mn in | humidity % | barometer mb |
| 20260505071517 | 64 | 53 | 1.7 | 7.8 | 0.00 | 0.00 | 0.00 | 74 | 1006.0 |
| 20260505070012 | 64 | 96 | 1.7 | 5.2 | 0.00 | 0.00 | 0.00 | 73 | 1006.0 |
| 20260505064530 | 64 | 79 | 2.6 | 8.7 | 0.00 | 0.00 | 0.00 | 73 | 1006.0 |
| 20260505063010 | 64 | 57 | 2.6 | 7.8 | 0.00 | 0.00 | 0.00 | 74 | 1006.0 |
| 20260505061517 | 64 | 68 | 1.7 | 4.3 | 0.00 | 0.00 | 0.00 | 74 | 1006.0 |
| 20260505060011 | 65 | 74 | 1.7 | 6.1 | 0.00 | 0.00 | 0.00 | 73 | 1005.9 |
| 20260505054512 | 65 | 92 | 1.7 | 7.0 | 0.00 | 0.00 | 0.00 | 72 | 1006.2 |
| 20260505053015 | 65 | 36 | 1.7 | 9.6 | 0.00 | 0.00 | 0.00 | 71 | 1006.4 |
| 20260505051507 | 65 | 36 | 2.6 | 6.1 | 0.00 | 0.00 | 0.00 | 72 | 1006.0 |
| 20260505041516 | 65 | 79 | 1.7 | 7.0 | 0.00 | 0.00 | 0.00 | 73 | 1006.6 |
| 20260505040008 | 65 | 59 | 2.6 | 7.0 | 0.00 | 0.00 | 0.00 | 72 | 1006.8 |
| 20260505034512 | 66 | 79 | 0.9 | 6.1 | 0.00 | 0.00 | 0.00 | 71 | 1007.0 |
| 20260505033015 | 66 | 43 | 1.7 | 7.0 | 0.00 | 0.00 | 0.00 | 70 | 1007.2 |
| 20260505031517 | 66 | 84 | 0.9 | 7.8 | 0.00 | 0.00 | 0.00 | 70 | 1007.1 |
| 20260505030006 | 67 | 18 | 1.7 | 5.2 | 0.00 | 0.00 | 0.00 | 68 | 1007.2 |
| 20260505024519 | 67 | 96 | 1.7 | 5.2 | 0.00 | 0.00 | 0.00 | 67 | 1007.0 |
| 20260505023003 | 68 | 77 | 1.7 | 5.2 | 0.00 | 0.00 | 0.00 | 65 | 1006.7 |
| 20260505021504 | 68 | 46 | 0.9 | 4.3 | 0.00 | 0.00 | 0.00 | 65 | 1006.5 |
| 20260505020011 | 69 | 80 | 0.9 | 6.1 | 0.00 | 0.00 | 0.00 | 63 | 1006.4 |
| 20260505014506 | 69 | 81 | 1.7 | 5.2 | 0.00 | 0.00 | 0.00 | 62 | 1006.1 |
| 20260505013011 | 70 | 59 | 1.7 | 4.3 | 0.00 | 0.00 | 0.00 | 61 | 1005.9 |
| 20260505011504 | 71 | 65 | 0.9 | 7.8 | 0.00 | 0.00 | 0.00 | 60 | 1005.7 |
| 20260505010004 | 71 | 59 | 1.7 | 5.2 | 0.00 | 0.00 | 0.00 | 60 | 1005.5 |
| 20260505004508 | 72 | 65 | 0.9 | 3.5 | 0.00 | 0.00 | 0.00 | 59 | 1005.4 |
| 20260505003007 | 73 | 75 | 1.7 | 5.2 | 0.00 | 0.00 | 0.00 | 56 | 1005.3 |
| 20260505001512 | 74 | 75 | 0.9 | 7.8 | 0.00 | 0.00 | 0.00 | 54 | 1005.3 |
| 20260505000008 | 75 | 86 | 4.3 | 10.4 | 0.00 | 0.00 | 0.00 | 51 | 1005.4 |
| 20260504234505 | 77 | 56 | 4.3 | 9.6 | 0.00 | 0.00 | 0.00 | 50 | 1005.5 |
| 20260504233007 | 77 | 53 | 2.6 | 6.1 | 0.00 | 0.00 | 0.00 | 51 | 1005.4 |
| 20260504231512 | 77 | 66 | 5.2 | 11.3 | 0.00 | 0.00 | 0.00 | 51 | 1005.5 |
| 20260504230014 | 78 | 69 | 3.5 | 10.4 | 0.00 | 0.00 | 0.00 | 51 | 1005.6 |
| 20260504224506 | 78 | 98 | 1.7 | 8.7 | 0.00 | 0.00 | 0.00 | 51 | 1005.5 |
| 20260504223006 | 78 | 70 | 3.5 | 15.6 | 0.00 | 0.00 | 0.00 | 50 | 1005.6 |
| 20260504221510 | 78 | 58 | 4.3 | 13.0 | 0.00 | 0.00 | 0.00 | 49 | 1005.6 |
| 20260504220015 | 78 | 94 | 5.2 | 8.7 | 0.00 | 0.00 | 0.00 | 51 | 1005.6 |
| 20260504214515 | 78 | 79 | 5.2 | 13.0 | 0.00 | 0.00 | 0.00 | 52 | 1005.8 |
| 20260504213004 | 78 | 56 | 4.3 | 13.0 | 0.00 | 0.00 | 0.00 | 50 | 1005.9 |
| 20260504211508 | 78 | 106 | 4.3 | 17.4 | 0.00 | 0.00 | 0.00 | 50 | 1006.0 |
| 20260504210013 | 78 | 87 | 6.1 | 12.2 | 0.00 | 0.00 | 0.00 | 51 | 1006.2 |
| 20260504204514 | 78 | 96 | 6.1 | 13.9 | 0.00 | 0.00 | 0.00 | 52 | 1006.3 |
| 20260504203027 | 78 | 99 | 6.1 | 18.2 | 0.00 | 0.00 | 0.00 | 51 | 1006.5 |
| 20260504201505 | 78 | 66 | 5.2 | 17.4 | 0.00 | 0.00 | 0.00 | 51 | 1006.7 |
| 20260504200010 | 78 | 59 | 3.5 | 13.9 | 0.00 | 0.00 | 0.00 | 52 | 1006.8 |
| 20260504194515 | 77 | 53 | 5.2 | 16.5 | 0.00 | 0.00 | 0.00 | 51 | 1006.9 |
| 20260504193019 | 78 | 68 | 5.2 | 15.6 | 0.00 | 0.00 | 0.00 | 50 | 1007.1 |
| 20260504191525 | 77 | 129 | 5.2 | 15.6 | 0.00 | 0.00 | 0.00 | 50 | 1007.2 |
| 20260504190008 | 77 | 14 | 5.2 | 13.0 | 0.00 | 0.00 | 0.00 | 51 | 1007.4 |
| 20260504184514 | 77 | 71 | 6.1 | 15.6 | 0.00 | 0.00 | 0.00 | 51 | 1007.3 |
| 20260504183017 | 76 | 67 | 7.8 | 18.2 | 0.00 | 0.00 | 0.00 | 50 | 1007.4 |
| 20260504181504 | 76 | 94 | 9.6 | 15.6 | 0.00 | 0.00 | 0.00 | 52 | 1007.3 |
| 20260504180008 | 76 | 60 | 4.3 | 15.6 | 0.00 | 0.00 | 0.00 | 53 | 1007.5 |
| 20260504174508 | 76 | 84 | 2.6 | 13.0 | 0.00 | 0.00 | 0.00 | 53 | 1007.5 |
| 20260504173003 | 76 | 153 | 4.3 | 13.9 | 0.00 | 0.00 | 0.00 | 54 | 1007.6 |
| 20260504171504 | 75 | 68 | 4.3 | 18.2 | 0.00 | 0.00 | 0.00 | 54 | 1007.6 |
| 20260504081504 | 61 | 77 | 0.9 | 7.0 | 0.00 | 0.00 | 0.00 | 67 | 1010.4 |